Location: Heilbronn
(49.1548°N, 9.2780°E)
Time: 17:30:56
(UTC+01:00)

N. Korean satellite - Visible Passes

Search period start: 22 November 2017 00:00
Search period end: 02 December 2017 00:00
Orbit: 460 x 514 km, 97.2° (Epoch: 21 November)

Date Brightness Start Highest point End Pass type
(mag) Time Alt. Az. Time Alt. Az. Time Alt. Az.
22 Nov 9.8 06:19:01 10° NE 06:21:39 18° E 06:24:18 10° SE visible
22 Nov 7.2 18:31:47 10° S 18:35:15 56° W 18:38:49 10° NNW visible
23 Nov 10.4 05:57:24 10° ENE 05:57:56 10° E 05:58:29 10° E visible
23 Nov 6.4 18:08:13 10° SSE 18:11:45 75° ENE 18:15:22 10° N visible
24 Nov 7.5 07:04:44 10° NNE 07:08:27 57° E 07:12:10 10° S visible
24 Nov 7.0 17:44:59 10° SE 17:48:19 39° ENE 17:51:44 10° N visible
24 Nov 9.5 19:19:39 10° SW 19:22:03 17° W 19:24:28 10° NW visible
25 Nov 8.8 06:41:29 10° NNE 06:44:52 31° E 06:48:15 10° SSE visible
25 Nov 7.7 17:22:07 10° ESE 17:24:58 23° ENE 17:27:52 10° NNE visible
25 Nov 8.5 18:55:12 10° SSW 18:58:22 30° W 19:01:36 10° NNW visible
26 Nov 9.8 06:18:34 10° NE 06:21:13 18° E 06:23:52 10° SE visible
26 Nov 7.2 18:31:16 10° S 18:34:46 56° W 18:38:22 10° NNW visible
27 Nov 10.4 05:56:54 10° ENE 05:57:28 10° E 05:58:02 10° E visible
27 Nov 6.4 18:07:40 10° SSE 18:11:14 75° ENE 18:14:55 10° N visible
28 Nov 7.5 07:04:14 10° NNE 07:07:58 57° E 07:11:40 10° S visible
28 Nov 7.0 17:44:26 10° SE 17:47:48 39° ENE 17:51:15 10° N visible
28 Nov 9.5 19:19:04 10° SW 19:21:31 17° W 19:24:01 10° NW visible
29 Nov 8.8 06:40:58 10° NNE 06:44:22 31° E 06:47:45 10° SSE visible
29 Nov 7.7 17:21:33 10° ESE 17:24:26 23° ENE 17:27:23 10° NNE visible
29 Nov 8.5 18:54:36 10° SSW 18:57:49 30° W 19:01:07 10° NNW visible
30 Nov 9.8 06:18:02 10° NE 06:20:41 18° E 06:23:19 10° SE visible
30 Nov 8.3 16:59:11 10° E 17:01:08 14° ENE 17:03:07 10° NNE visible
30 Nov 7.2 18:30:39 10° S 18:34:12 57° W 18:37:51 10° NNW visible
01 Dec 10.4 05:56:25 10° E 05:56:55 10° E 05:57:25 10° E visible
01 Dec 6.4 18:07:04 10° SSE 18:10:40 75° ENE 18:14:22 10° N visible
